Погода в Башмаке

Россия / Еврейская автономная область     47°56′19″N   132°01′47″E
В апреле 2022 года жителям России запретили посещать сайт meteo.paraplan.net по решению Генеральной прокуратуры. Аудитория сайта уменьшилась в 10 раз. Владельцы сайта не видят смысла в поддержке погодного сервера в таких условиях. Сайт будет закрыт в октябре.
темп.,
°C
ветер,
м/с
пор.,
м/с
влажн.,
%
обл.,
%
осадки,
мм/ч
давл.,
гПа
погр.,
м
1 октября, сб
сб101:00+10с4693100 1.6 1009389
04:00+10с5986100 1.6 1011486
07:00+9ссз498411 0.0 1015478
10:00+10ссз57673 0.0 1017606
13:00+13ссз45480 0.0 10191035
16:00+15ссз34434 0.0 10191239
19:00+10в01554 0.0 102010
22:00+8ююз11645 0.0 102210
2 октября, вс
вс201:00+7юв2269100 0.0 102216
04:00+6юв2277100 0.0 102127
07:00+7в2277100 0.1 102234
10:00+8вюв2388100 0.8 1021155
13:00+10св2285100 0.1 1020105
16:00+16ю246395 0.1 1016908
19:00+11ссв348944 0.0 101655
22:00+10в2292100 0.0 101551
3 октября, пн
пн301:00+10с2293100 0.0 101327
04:00+9с2295100 0.0 101323
07:00+9с2392100 0.0 101369
10:00+11с3482100 0.0 1013320
13:00+11ссз3783100 0.1 1012554
16:00+9с61190100 1.5 1011609
19:00+6ссз71388100 1.6 1012608
22:00+4сз61291100 3.3 1012704
4 октября, вт
вт401:00+4сз61177100 0.2 1011805
04:00+2зсз512750 0.2 1011494
07:000зсз511785 0.0 1011540
10:00+2зсз9126269 0.0 10111074
13:00+5сз10115197 0.0 10101490
16:00+5сз10135099 0.0 10101645
19:00+3зсз914615 0.0 10111024
22:00+2сз814635 0.0 1012878
5 октября, ср
ср501:00+1зсз612610 0.0 1012536
04:000зсз612613 0.0 1013433
07:00−1з612590 0.0 1014477
10:00+2зсз812505 0.0 10151289
13:00+6зсз81038100 0.0 10142088
16:00+7зсз7103498 0.0 10132340
19:00+3сз33485 0.0 101432
22:00+2з335294 0.0 101538